(354) Eleonora
ephemeris date magn radius delta ra dec elong phase
Today21 Nov 202411.62.576 AU3.346 AU13h59m+00°20'33.1°12.1°
Opposition19 May 202510.32.767 AU1.833 AU16h11m+07°27'151.9°9.9°
(354) Eleonora - 2024-11-21
astro.vanbuitenen.nl


 
-1 year
-1 month
-1 day
Now
+1 day
+1 month
+1 year

The interactive orbit chart above shows the body's path through the solar system and its position at the given date. Green and blue lines are shown perpendicular to the ecliptic plane: Green if the path is above the ecliptic plane, blue if it is below. (Left-click and drag to rotate the view; Right-click and drag to move the view; Use scroll wheel to zoom in our out.)

The orbital elements of Eleonora are:

            e (Eccentricity)                : 0.1115073
            a (Semimajor axis)              : 2.7993322
            i (Inclination)                 : 18.36216
            Ω (Longitude of ascending node) : 140.21883
            ω (Argument of perihelion)      : 7.93013
            M (Mean anomaly)                : 350.38984
            Epoch                           : 2024 Mar 31

            L (Longitude of perihelion)     : 147.74995
            B (Latitude of perihelion)      : 2.49098
            P (Orbital period in years)     : 4.68            
        

The light curve chart below shows the estimated development of the minor planet's magnitude.


The all-sky chart below shows the path of the minor planet over the same period as the light curve. The current position is marked yellow.





The following chart shows the path of the minor planet in the next few days. The field of view is optimized for (~10x50) binoculars and finderscopes. A more printer-friendly version of the same chart can be found below.




Ephemerides:
Date       Time       RA (2000)    DEC (2000)    delta   radius  elong  phase   PA    magn
2024-11-21 00:00 UT   13 59 15.7   +00 20 09     3.346    2.576   33.1   12.1   309   11.6 
2024-11-21 12:47 UT   14 00 10.4   +00 17 02     3.343    2.576   33.4   12.2   309   11.6 
2024-11-22 00:00 UT   14 00 58.4   +00 14 18     3.340    2.577   33.7   12.3   309   11.6 
2024-11-23 00:00 UT   14 02 40.9   +00 08 32     3.334    2.578   34.2   12.4   308   11.6 
2024-11-24 00:00 UT   14 04 23.4   +00 02 50     3.327    2.579   34.8   12.6   308   11.6 
2024-11-25 00:00 UT   14 06 05.6   +00 02 47     3.321    2.579   35.3   12.8   308   11.6 
2024-11-26 00:00 UT   14 07 47.7   +00 08 19     3.315    2.580   35.9   12.9   307   11.6 
2024-11-27 00:00 UT   14 09 29.7   +00 13 45     3.308    2.581   36.4   13.1   307   11.6 
2024-11-28 00:00 UT   14 11 11.6   +00 19 07     3.301    2.582   37.0   13.3   307   11.6 
2024-11-29 00:00 UT   14 12 53.2   +00 24 23     3.294    2.583   37.5   13.5   306   11.6 
2024-11-30 00:00 UT   14 14 34.7   +00 29 34     3.288    2.584   38.1   13.6   306   11.6 
2024-12-01 00:00 UT   14 16 16.1   +00 34 40     3.281    2.585   38.6   13.8   306   11.6 
2024-12-02 00:00 UT   14 17 57.2   +00 39 40     3.273    2.586   39.2   13.9   305   11.6 
2024-12-03 00:00 UT   14 19 38.2   +00 44 35     3.266    2.587   39.8   14.1   305   11.6 
2024-12-04 00:00 UT   14 21 19.0   +00 49 24     3.259    2.588   40.3   14.3   305   11.6 
2024-12-05 00:00 UT   14 22 59.6   +00 54 08     3.252    2.588   40.9   14.4   304   11.6 
2024-12-06 00:00 UT   14 24 40.0   +00 58 46     3.244    2.589   41.5   14.6   304   11.6 
2024-12-07 00:00 UT   14 26 20.1   -01 03 18     3.237    2.590   42.0   14.8   304   11.6 
2024-12-08 00:00 UT   14 28 00.1   -01 07 45     3.229    2.591   42.6   14.9   303   11.6 
2024-12-09 00:00 UT   14 29 39.8   -01 12 05     3.221    2.592   43.2   15.1   303   11.6 
2024-12-10 00:00 UT   14 31 19.4   -01 16 20     3.213    2.593   43.8   15.2   303   11.6 


    Terminology:
            
    delta:  distance between minor planet and earth in AU
    radius: distance between minor planet and sun in AU
    magn:   magnitude (brightness) estimate    
    ra:     right ascension in hours (24h = 360deg)
    dec:    declination in degrees
    elong:  elongation in degrees (angle sun-earth-minor planet)    
    phase:  phase angle in degrees (angle sun-minor planet-earth)        
    AU:     Astronomical Unit (mean distance between earth and sun: 149597870.7 km
    

Orbital elements provided by the MPC (Minor Planet Center).
Calculations by a modified version of AAPlus, a C# implementation of the AA+ project by PJ Naughter from the algorithms presented in the book "Astronomical Algorithms" by Jean Meeus.
NGC2000 dso catalog and star labels from VizieR as provided by the Strasbourg astronomical Data Center.
Tycho2 catalog from the ESO archive.